DECAYED

OBJECT B, 57167 (Decayed)

Orbit data source: Space-Track

You're viewing an uncataloged RSO

Recently launched and/or uncataloged RSOs may have evolving metadata. Metadata may include the following, but is not limited to: Owner, Manufacturer, Bus, Motor, and Mission.

OBJECT B, 57167 was a satellite in LEO that was launched on Tue, 27 Jun 2023 UTC via a SOYUZ-2-1B launch vehicle from the Vostochny Cosmodrome (VOSTO). Unknown objects in Earth's orbit typically refer to objects detected orbiting the Earth but have not yet been identified or cataloged. These objects could be anything from previously untracked satellites, spent rocket stages, debris from satellite collisions, or even natural meteoroids temporarily captured by Earth's gravity. This object's orbit decayed before it could be identified.

Not visible in the next 10 days
Identifier
57167, 2023-091B
Orbit
Decayed
Country
Flag of TBDTBD
Related business
Flag of RUOOO Stratonavtika (RU)
Manufacturer
Geoskan
Mission
Decayed Commercial Technology
Bus & Motor
CUBESAT 3U, Unknown motor
Mass
4.205 kg wet, 4.205 kg dry
Launch date (UTC)
2023-06-27 (3 years ago)
Launch vehicle
SOYUZ-2-1B
Launch site
Vostochny Cosmodrome (VOSTO)
Object type
Unknown
Shape & HBR
Box, 0.2 m
Radar Cross Section
0.035 m², Medium (>0.1 m² and < 1m²)

Expand to show TLE details & history
Last TLE update: 8 months ago

TLE from 8 months ago
0 OBJECT B
1 57167U 23091B   26010.59363612  .08733485  25619-5  12458-2 0  9993
2 57167  97.4978  91.1570 0009532 282.8011  77.2220 16.34765267141469
Epoch: 2026-01-10T14:14Z
TLE epoch observation values (Epoch: 2026-01-10T14:14:50.160Z)
Latitude
-0.00004°
Longitude
127.33121°
Altitude
181.629 km
Speed
7.798 km/s
True Right ascension
06h 04m 37s
True Declination
0° 00' 00"
Sunlit
Object was in full shadow at epoch
Visualization orbit readout
Latitude
Unknown
Longitude
Unknown
Altitude
Unknown
Speed
Unknown
Apparent Right ascension
Unknown
Apparent Declination
Unknown
Sunlit
N/A
Visualization observer readout
Local Sidereal Time
01:04:46
Azimuth
Unknown
Elevation
Unknown
Doppler factor
Unknown
Orbital elements
Apogee altitude
182.832 km
Perigee altitude
170.336 km
Semi-major axis
6,554.721 km
Eccentricity
0.00095
Inclination
97.4978°
RAAN
91.157°
Arg. of periapsis
282.8011°
True anomaly
77.32855°
Mean anomaly
77.222°
Eccentric anomaly
77.27527°
Mean motion
4.08989 °/min
Orbital period
88.02 mins
BSTAR
0.0012458
Loading maneuver chart data...
Computing Atmospheric mass density...
Loading historical data...
Loading historical data...
Loading historical data...
Loading historical data...
Loading historical data...
Loading historical data...
Loading historical data...

Documentation

Showing up to 5 results
|